SCP
0 0 0 0 1 0 0 0 1 0 0 0 1 1 1 1 1 2 2 2 2 2 3 3 4 3 3 3 4 4 4 5 5 6 7 6 4 3 3 3 4 4 3 3
0 0 0 0 1 0 0 0 0 0 0 0 1 1 1 1 1 1 1 2 2 3 3 4 4 4 4 3 4 4 5 5 5 6 7 6 5 3 3 3 3 3 3 2
0 0 0 1 1 0 0 0 0 0 1 1 1 1 1 1 1 1 1 1 2 2 3 4 4 4 4 4 4 4 5 5 5 5 6 6 5 3 3 2 2 2 2 2
0 0 1 1 0 0 0 0 0 0 1 1 0 1 1 1 1 1 1 2 2 2 3 4 4 4 4 4 4 4 5 5 5 5 5 5 4 3 3 3 2 2 2 2
1 1 1 1 0 0 0 0 0 0 0 0 0 0 1 1 1 1 2 2 3 4 4 5 5 4 4 4 4 4 6 7 7 6 5 5 4 3 3 3 2 2 2 2
1 1 1 0 0 0 0 0 0 0 0 0 0 1 1 1 1 2 2 2 3 4 5 6 6 6 5 5 5 5 6 8 8 7 6 5 4 3 3 3 3 2 1 1
1 1 0 0 0 0 0 0 0 0 0 0 0 1 1 1 1 1 2 2 3 3 4 5 5 6 5 5 5 5 6 7 7 7 6 6 4 3 3 3 3 2 1 1
0 0 0 0 0 0 0 0 0 0 0 0 0 1 1 1 1 1 2 2 2 2 2 3 3 4 4 4 5 5 5 5 5 5 5 5 4 3 3 3 3 2 1 1
0 0 0 0 0 0 0 0 0 0 0 0 0 1 1 1 1 1 2 2 2 2 1 1 1 2 2 3 4 4 4 4 4 4 4 4 4 3 3 3 2 1 1 1
0 0 0 0 0 0 0 0 0 0 0 0 0 1 1 1 1 1 1 1 1 2 1 1 1 1 1 2 3 4 4 3 3 3 3 3 3 2 2 2 1 1 0 0
0 0 0 0 0 0 0 0 0 0 0 0 0 0 1 1 1 1 1 1 1 2 2 2 1 1 1 2 3 4 4 3 3 2 2 3 3 2 2 1 1 1 0 0
0 0 0 0 1 1 0 0 0 1 1 0 0 0 1 1 1 1 1 1 2 2 2 2 1 1 1 2 3 4 4 3 3 3 3 3 3 2 1 1 1 1 0 0
1 1 0 0 0 0 0 0 0 1 1 0 0 1 1 1 1 1 2 2 2 3 3 2 2 2 2 3 3 4 4 3 3 3 3 3 2 2 1 1 1 1 1 1
1 1 1 0 0 0 0 0 0 0 0 0 0 0 1 1 1 2 2 2 2 3 3 3 2 3 3 4 4 4 4 4 3 3 3 3 2 2 2 1 1 1 1 1
1 1 1 0 0 0 0 0 0 0 0 0 0 0 1 1 1 2 2 2 2 2 3 3 3 4 5 5 5 4 3 4 4 4 3 3 3 3 2 2 2 1 1 1
1 1 1 1 0 0 0 0 0 0 0 0 1 1 1 2 2 2 2 2 2 2 3 3 4 5 6 6 5 3 3 4 4 4 4 3 3 3 3 3 2 2 1 1
1 1 1 1 1 1 1 1 1 1 1 1 1 1 2 2 2 2 2 2 2 2 2 3 4 6 7 6 4 3 3 4 4 4 4 3 3 4 3 3 3 2 2 1
1 1 1 1 1 1 1 1 1 1 2 2 2 2 2 2 2 2 2 2 2 2 2 2 4 6 7 5 4 3 4 4 4 4 3 3 3 4 4 3 3 3 2 2
1 1 1 1 1 1 1 1 1 1 2 2 2 2 2 2 2 2 3 4 3 3 3 3 4 6 6 4 4 4 4 4 4 3 3 3 3 3 3 3 4 3 2 2
1 1 1 1 1 1 1 1 1 1 1 1 1 2 3 2 2 3 4 5 5 4 4 4 4 5 5 4 4 4 4 4 3 2 2 2 2 2 3 4 4 4 3 2
1 1 1 1 1 1 1 1 1 1 1 1 1 2 2 2 2 2 3 4 4 4 4 4 4 4 4 4 4 4 4 3 3 2 2 2 2 2 2 3 4 3 2 2
1 1 1 1 1 1 1 1 1 1 1 1 1 1 1 1 1 2 3 3 3 4 4 4 4 4 4 5 5 4 4 3 3 3 2 2 2 2 2 3 3 3 2 1
1 2 2 2 1 1 1 1 1 1 1 1 1 1 1 1 2 2 2 3 3 3 4 4 3 3 3 4 4 4 3 4 3 3 3 2 2 2 2 2 2 2 1 1
1 2 2 1 1 1 1 1 1 1 1 1 1 1 1 1 1 2 2 2 3 3 3 3 2 2 2 2 3 3 3 3 3 3 3 3 2 2 2 2 2 2 1 1
1 1 1 1 1 1 1 0 0 1 1 1 1 1 1 1 1 1 1 2 2 2 2 2 2 2 1 1 2 2 2 3 3 3 3 2 2 2 1 1 1 1 1 1
1 1 1 1 1 1 0 0 0 1 1 1 0 1 1 1 1 1 1 1 2 2 2 2 2 1 1 1 1 2 2 2 3 3 3 2 2 1 1 1 1 1 1 1
Wind_Speed
10 12 11 9 10 10 9 9 9 5 3 7 8 8 7 8 9 9 9 9 9 9 9 9 8 7 7 6 6 5 5 5 4 3 4 3 3 3 3 3 3 3 3 3
11 14 11 9 9 10 11 11 9 6 4 6 7 8 7 8 10 9 9 9 9 9 10 9 9 8 8 7 7 6 6 5 5 3 3 3 3 3 2 2 2 3 3 3
15 8 7 10 10 11 12 11 9 6 4 7 8 10 9 9 9 8 9 9 9 10 10 10 9 9 8 8 7 5 5 5 5 4 4 3 2 3 3 3 3 3 4 4
13 10 10 11 11 11 10 8 9 8 9 7 7 8 6 8 8 8 9 9 10 10 10 10 10 9 8 7 7 6 6 5 5 5 5 4 3 3 3 3 3 3 4 5
9 9 12 13 11 10 8 5 8 9 10 10 9 10 5 6 8 8 9 9 9 10 10 10 10 9 8 7 7 6 5 5 5 5 5 5 4 3 3 3 3 4 4 5
10 8 9 10 9 9 7 6 7 9 10 11 8 9 6 4 5 5 7 9 9 9 9 9 8 8 7 7 6 6 6 5 5 5 4 4 4 4 3 4 4 4 4 4
11 12 10 9 10 10 10 9 7 9 9 7 4 8 5 1 2 4 5 7 8 9 9 9 9 9 8 7 7 6 6 5 5 5 4 4 4 5 5 4 4 4 4 4
10 10 10 10 11 8 11 12 9 7 7 4 5 7 2 1 1 3 4 6 8 8 8 9 9 8 8 8 7 6 6 5 5 4 4 4 4 4 3 3 4 4 3 3
8 7 8 8 8 11 12 11 9 11 11 9 6 5 4 4 4 5 6 7 8 8 8 8 8 8 7 7 7 6 5 4 4 4 4 4 4 4 3 4 4 3 3 3
7 7 8 8 8 9 10 8 8 10 8 8 6 7 3 4 5 6 7 8 8 8 8 7 7 7 7 6 6 6 5 4 4 4 4 3 3 3 3 3 3 3 3 3
8 8 8 9 10 10 10 11 9 9 8 8 6 2 2 1 3 6 7 8 8 8 8 7 7 6 7 6 6 6 6 5 4 4 3 3 3 3 3 3 3 3 4 4
6 7 8 9 6 7 10 10 10 9 8 8 8 2 5 1 1 3 6 7 7 8 8 8 7 6 6 6 6 6 5 5 4 4 4 4 3 3 3 3 3 4 4 4
4 6 8 9 9 9 9 10 10 9 8 8 9 3 5 3 2 3 5 6 7 7 7 7 7 6 6 6 5 5 5 5 5 4 4 4 3 3 3 4 4 4 4 4
5 8 10 10 6 7 9 10 11 12 9 9 10 6 2 1 2 3 4 5 6 7 7 7 7 6 6 6 6 5 5 5 5 5 5 4 4 4 4 4 4 4 4 4
6 9 10 10 8 8 9 10 11 13 12 11 8 7 3 1 2 3 4 5 6 6 6 6 6 6 6 6 6 5 5 5 4 4 4 4 4 4 4 4 4 4 4 4
6 8 8 9 9 9 10 10 11 11 10 9 8 5 2 1 2 3 4 5 6 6 5 5 5 6 6 6 5 5 5 4 4 4 4 4 4 4 4 4 3 3 3 3
6 7 8 8 7 9 12 9 9 8 7 7 7 3 1 2 2 3 3 4 5 5 5 4 4 5 5 5 5 5 5 4 4 4 4 4 4 4 4 3 3 3 3 3
7 8 7 6 7 12 3 3 5 6 4 4 3 1 2 1 2 2 2 2 2 3 3 3 3 4 4 4 4 4 4 4 4 4 4 4 4 4 3 3 3 3 3 3
8 7 6 6 9 8 4 4 5 5 4 1 2 1 2 2 4 5 3 2 2 1 1 2 2 3 4 4 4 4 4 4 4 4 4 4 4 3 3 3 3 3 3 3
7 8 8 8 9 7 1 2 2 5 5 2 1 2 3 4 4 3 3 2 2 1 1 2 3 4 4 4 4 4 4 3 3 3 3 3 4 3 3 3 3 2 3 4
7 7 9 9 9 2 5 2 3 6 1 3 1 2 3 2 2 3 2 2 2 2 1 1 3 3 3 4 4 4 3 3 3 3 3 3 3 3 3 3 2 3 3 3
5 5 6 7 8 2 5 2 1 4 4 1 1 1 1 2 3 3 2 2 2 1 1 1 2 3 3 3 3 3 3 2 2 2 3 3 3 3 3 3 3 3 3 4
2 4 3 2 1 5 3 2 4 3 2 1 0 1 2 2 2 2 2 1 1 1 1 1 2 2 2 2 3 3 3 2 3 2 2 3 3 3 2 3 3 4 4 4
1 3 2 1 2 3 3 4 5 4 3 1 1 1 2 2 2 2 1 1 1 0 0 1 2 2 2 2 2 2 2 3 3 3 3 3 3 3 2 3 3 3 3 3
3 3 3 2 2 3 4 5 5 4 3 3 2 2 2 2 2 2 2 1 1 1 1 1 1 1 1 2 2 2 2 3 3 3 3 4 4 3 3 3 2 3 2 2
2 2 3 3 3 3 3 4 4 3 3 2 2 2 2 2 2 2 1 1 1 1 1 1 1 1 1 1 2 2 2 3 3 3 3 3 3 3 3 3 3 3 2 2
Wind_Direction
199 220 225 225 233 255 259 259 254 246 218 244 248 250 234 212 214 217 213 207 202 193 181 176 176 178 176 176 180 183 187 183 193 194 203 206 208 215 214 214 200 204 213 211
207 224 231 231 232 240 244 248 246 227 209 253 260 259 239 220 221 220 218 212 207 192 181 178 178 180 183 182 184 188 189 187 198 195 209 215 219 223 221 230 209 211 211 214
225 227 216 226 228 233 241 246 252 254 246 238 256 250 225 215 219 219 220 217 208 198 189 182 183 188 188 187 189 189 192 192 199 201 205 200 201 214 208 215 208 210 214 220
230 229 223 227 228 234 245 238 248 245 250 245 239 267 225 210 207 212 216 214 206 198 194 190 188 189 193 191 186 191 194 196 199 202 204 204 212 225 225 222 212 208 213 217
223 217 224 230 231 233 248 251 247 247 252 259 238 257 240 200 221 216 213 212 204 196 193 192 191 187 189 187 184 185 189 196 199 204 202 213 226 234 223 215 207 216 207 214
240 223 231 234 228 224 227 224 230 236 241 244 240 255 255 212 238 219 205 205 197 193 190 188 184 181 183 183 182 181 184 192 195 203 207 215 228 235 232 223 215 217 207 210
223 215 213 218 217 202 215 228 229 222 222 236 200 245 264 236 236 228 212 200 188 190 188 183 180 179 179 182 185 183 183 189 190 196 210 217 227 226 226 229 221 225 216 210
228 218 203 207 222 223 220 234 249 259 257 251 201 241 240 119 193 214 209 196 182 185 185 184 182 180 179 179 181 183 185 186 188 191 208 222 230 232 225 230 235 230 230 221
238 223 189 200 215 231 223 227 253 267 268 267 239 229 197 174 193 190 181 179 177 179 178 179 176 177 176 176 178 181 182 185 189 190 204 218 223 235 236 225 232 226 221 213
245 241 209 188 203 217 248 236 231 245 257 262 249 240 236 177 190 179 175 178 175 174 174 173 171 173 173 173 172 173 175 182 188 193 203 206 214 217 227 231 230 233 224 218
239 238 217 204 216 220 211 219 235 247 255 267 270 268 62 207 196 189 183 177 172 174 171 167 166 171 173 175 174 172 174 180 185 195 202 212 215 218 224 227 226 225 224 216
224 245 234 223 217 234 228 229 229 243 244 252 272 282 81 94 165 190 182 172 169 171 167 164 165 169 176 177 173 173 181 186 186 193 202 206 215 220 227 227 226 220 220 220
207 230 228 210 193 197 219 222 231 243 252 252 258 240 108 117 140 171 177 170 168 169 168 167 168 174 177 175 175 175 184 188 189 194 199 200 211 216 225 229 228 225 218 218
229 238 248 248 242 218 223 225 226 237 245 252 257 269 229 127 166 165 165 167 169 173 173 173 175 177 177 175 177 182 187 187 194 199 202 204 210 213 219 224 224 228 225 220
229 241 246 256 251 240 238 234 227 235 248 260 266 268 281 274 212 167 164 168 173 177 177 175 178 178 179 178 181 184 189 190 197 205 208 209 208 210 217 219 225 231 229 224
226 247 245 244 234 233 236 232 228 231 240 248 258 267 359 61 155 150 165 175 186 186 184 180 177 177 181 182 181 180 188 192 198 207 207 203 207 209 214 215 218 222 224 227
220 225 236 243 226 231 231 225 224 223 230 245 254 266 159 170 166 159 161 181 194 191 187 185 177 178 180 182 183 188 189 191 197 206 206 200 203 206 211 215 213 214 217 219
230 228 235 243 227 234 199 186 217 219 219 243 261 250 201 181 151 143 141 170 177 189 187 184 178 171 176 180 181 193 192 190 196 202 208 204 203 204 207 211 215 215 219 224
224 225 235 236 239 233 177 183 205 216 221 233 244 207 159 130 174 141 104 98 113 154 208 194 180 174 175 174 175 184 191 194 198 200 207 206 207 209 212 217 218 219 220 228
198 221 236 236 246 243 171 114 232 219 206 80 243 200 176 189 220 130 102 88 81 103 160 189 172 166 167 167 174 174 177 180 194 206 215 207 204 210 217 224 224 219 224 230
199 211 228 237 242 223 51 64 209 223 29 34 287 209 197 220 352 87 128 116 96 96 108 153 164 167 158 162 171 175 177 182 199 207 210 202 204 209 214 220 224 227 230 232
239 230 221 235 239 186 53 85 321 5 26 41 341 193 165 71 85 109 119 120 118 117 117 128 155 152 150 165 180 187 187 194 202 202 202 198 205 219 201 208 225 233 240 233
292 328 307 300 15 57 68 23 3 2 14 16 76 114 118 130 124 111 115 126 125 151 142 176 180 159 144 162 185 198 202 206 205 194 199 204 205 214 220 225 227 230 229 247
66 347 302 283 70 33 27 23 13 7 6 27 72 102 128 132 126 117 106 106 102 86 160 207 194 171 158 174 186 202 210 211 205 202 205 210 205 211 213 240 242 247 248 248
334 310 300 282 5 1 18 17 12 15 37 59 71 89 97 113 117 103 89 70 49 26 346 263 223 206 193 192 198 211 216 213 212 212 216 220 212 209 218 224 239 249 256 288
328 324 304 310 332 307 321 348 4 30 54 69 72 67 80 98 110 104 86 59 26 352 317 288 258 230 232 227 217 217 220 211 219 219 218 224 221 214 224 223 206 175 217 169